Regional Weather Roundup
Issued by NWS Little Rock, AR

Home | Current Version | Previous Version | Graphics & Text | Print | Product List | Glossary On
Versions: 1 2 3 4 5 6 7 8 9 10 11 12 13 14 15 16 17 18 19 20 21 22 23 24 25 26 27
000
ASUS44 KLZK 260505
RWRLZK

WEATHER ROUNDUP FOR ARKANSAS
NATIONAL WEATHER SERVICE LITTLE ROCK AR
1200 AM CDT FRI AUG 26 2016

NOTE: "FAIR" INDICATES FEW OR NO CLOUDS BELOW 12,000 FEET WITH NO
SIGNIFICANT WEATHER AND/OR OBSTRUCTIONS TO VISIBILITY.

ARZ001-003-010-029-260600-
NORTHWEST ARKANSAS

CITY           SKY/WX    TMP DP  RH WIND       PRES   REMARKS
FAYETTEVILLE   FAIR      70  68  93 CALM      30.11S
FORT SMITH     FAIR      76  68  76 E5        30.08S
HARRISON       FAIR      74  69  85 S7        30.12F
BENTONVILLE    FAIR      75  64  69 S5        30.11S
ROGERS         FAIR      75  68  78 SE6       30.12R
SILOAM SPGS    FAIR      72  61  68 SE7       30.11S
HIGHFILL       FAIR      75  68  78 S6        30.10S
$$

ARZ004-005-016-260600-
NORTH CENTRAL ARKANSAS

CITY           SKY/WX    TMP DP  RH WIND       PRES   REMARKS
BATESVILLE     FAIR      79  73  83 CALM      30.09S
FLIPPIN        FAIR      75  72  88 CALM      30.08R
MTN HOME       FAIR      76  73  91 CALM      30.10R
$$

ARZ040-041-260600-
WEST CENTRAL ARKANSAS

CITY           SKY/WX    TMP DP  RH WIND       PRES   REMARKS
MENA           NOT AVBL
$$

ARZ009-017-025-026-028-260600-
NORTHEAST ARKANSAS

CITY           SKY/WX    TMP DP  RH WIND       PRES   REMARKS
JONESBORO      FAIR      79  72  79 W6        30.08S
NEWPORT        FAIR      78  77  96 S6        30.08F
WALNUT RIDGE   FAIR      79  75  89 S6        30.07S
BLYTHEVILLE    FAIR      79  76  90 S6        30.08S
$$

ARZ022-023-033-042-044-260600-
CENTRAL ARKANSAS

CITY           SKY/WX    TMP DP  RH WIND       PRES   REMARKS
LITTLE ROCK    CLOUDY    77  72  84 SW8       30.10F
JACKSONVILLE   FAIR      76  76  97 S3        30.09S
SEARCY         FAIR      77  77 100 S6        30.10S FOG
HOT SPRINGS    MOCLDY    75  72  90 SE3       30.12F
RUSSELLVILLE   FAIR      74  73  97 CALM      30.09S
$$

ARZ036-260600-
EAST ARKANSAS

CITY           SKY/WX    TMP DP  RH WIND       PRES   REMARKS
WEST MEMPHIS   FAIR      75  74  96 NW3       30.07S
$$

ARZ050-053-066-070-073-260600-
SOUTHWEST ARKANSAS

CITY           SKY/WX    TMP DP  RH WIND       PRES   REMARKS
ARKADELPHIA    LGT RAIN  74  74 100 CALM      30.10F
CAMDEN         LGT RAIN  73  72  94 S6        30.09F
TEXARKANA      LGT RAIN  74  72  93 S3        30.09F
EL DORADO      LGT RAIN  73  73 100 CALM      30.09F
DE QUEEN       FAIR      75  74  96 E5        30.08R
$$

ARZ056-057-069-260600-
SOUTHEAST ARKANSAS

CITY           SKY/WX    TMP DP  RH WIND       PRES   REMARKS
PINE BLUFF     LGT RAIN  74  72  93 SW5       30.08F
STUTTGART      FAIR      75  72  88 W7        30.08F
MONTICELLO     FAIR      75  71  87 CALM      30.07F

$$






USA.gov is the U.S. government's official web portal to all federal, state and local government web resources and services.